Liberia, Costa Rica

10:32 PM CST on February 23, 2018 (GMT -0600)
Daniel Oduber Quiros International

Weather History for MRLB - March, 2013

Change the Weather History Date:

Saturday, March 30, 2013

  Actual Average Record
Temperature  
Mean Temperature 86 °F -  
Max Temperature 95 °F 93 °F 100 °F (1998)
Min Temperature 76 °F 76 °F 68 °F (2016)
Cooling Degree Days 20    
Growing Degree Days 36 (Base 50)    
Moisture  
Dew Point 61 °F    
Average Humidity 41    
Maximum Humidity 61    
Minimum Humidity 22    
Precipitation  
Precipitation 0.00 in - - ()
Sea Level Pressure  
Sea Level Pressure 29.82 in    
Wind  
Wind Speed 17 mph ()    
Max Wind Speed 26 mph    
Max Gust Speed 38 mph    
Visibility 12.0 miles    
Events      
Averages and records for this station are not official NWS values.
T = Trace of Precipitation, MM = Missing Value Source: Averaged Metar Reports

Daily Weather History Graph

Daily Weather History Graph

Search for Another Location

Airport or City:

Trip Planner

Search our weather history database for the weather conditions in past years. The results will help you decide how hot, cold, wet, or windy it might be!

Date:

Astronomy

Mar. 30, 2013 Rise Set
Actual Time 5:40 AM CST 5:52 PM CST
Civil Twilight 5:19 AM CST 6:14 PM CST
Nautical Twilight 4:54 AM CST 6:38 PM CST
Astronomical Twilight 4:30 AM CST 7:03 PM CST
Moon 9:15 PM CST (3/30) 8:14 AM CST (3/30)
Length of Visible Light 12h 54m
Length of Day
12h 12m
Waning Gibbous, 86% of the Moon is Illuminated
Mar 30
Waning Gibbous
Apr 2
Last Quarter
Apr 10
New
Apr 18
First Quarter
Apr 25
Full

Hourly Weather History & Observations

Time (CST) Temp. Heat Index Dew Point Humidity Pressure Visibility Wind Dir Wind Speed Gust Speed Precip Events Conditions
6:00 AM 78 °F - 64 °F 52% 29.85 in 12 mi NE 15.0 mph - -   Clear
6:00 AM 78.8 °F - 64.4 °F 61% 29.83 in - NE 15.0 mph 26.5 mph N/A   Clear
7:00 AM 80.6 °F 82.3 °F 64.4 °F 58% 29.84 in - East 20.7 mph 32.2 mph N/A   Clear
8:00 AM 84.2 °F 85.0 °F 62.6 °F 48% 29.86 in - East 23.0 mph 38.0 mph N/A   Clear
9:00 AM 86 °F - 63 °F 36% 29.88 in 12 mi ENE 25.3 mph - -   Clear
9:00 AM 86.0 °F 86.6 °F 62.6 °F 45% 29.87 in - ENE 25.3 mph - N/A   Clear
10:00 AM 87.8 °F 88.5 °F 62.6 °F 43% 29.87 in - ENE 25.3 mph - N/A   Clear
11:00 AM 89.6 °F 90.1 °F 62.6 °F 40% 29.85 in - ENE 26.5 mph - N/A   Clear
12:00 PM 92 °F - 61 °F 25% 29.84 in 12 mi East 20.7 mph - -   Clear
12:00 PM 91.4 °F 91.4 °F 60.8 °F 36% 29.83 in - East 20.7 mph - N/A   Clear
1:00 PM 91.4 °F 91.4 °F 60.8 °F 36% 29.81 in - East 19.6 mph 31.1 mph N/A   Clear
2:00 PM 93.2 °F 93.3 °F 60.8 °F 34% 29.78 in - ENE 17.3 mph - N/A   Clear
3:00 PM 95 °F - 60 °F 22% 29.79 in 12 mi ENE 15.0 mph - -  
3:00 PM 95.0 °F 95.2 °F 60.8 °F 32% 29.77 in - ENE 15.0 mph - N/A   Clear
4:00 PM 93.2 °F 94.1 °F 62.6 °F 36% 29.77 in - NE 19.6 mph - N/A   Clear
5:00 PM 91.4 °F 90.7 °F 59.0 °F 34% 29.78 in - ENE 19.6 mph - N/A   Clear
6:00 PM 87 °F - 60 °F 31% 29.80 in 12 mi ENE 18.4 mph - -   Clear
6:00 PM 86.0 °F 86.1 °F 60.8 °F 43% 29.79 in - ENE 18.4 mph - N/A   Clear
7:00 PM 84.2 °F 83.8 °F 59.0 °F 42% 29.81 in - ENE 17.3 mph - N/A   Clear
8:00 PM 84.2 °F 83.5 °F 57.2 °F 40% 29.82 in - East 13.8 mph - N/A   Clear
9:00 PM 80.6 °F 81.5 °F 60.8 °F 51% 29.84 in - ENE 15.0 mph - N/A   Clear
10:00 PM 78.8 °F - 60.8 °F 54% 29.85 in - East 17.3 mph - N/A   Clear